| time (UTC) | temp F | wind direction | speed MPH | gust MPH | rain 1hr in | rain 24hr in | rain mn in | humidity % | barometer mb |
| 20260508225213 | 69 | 198 | 1.0 | 4.0 | 0.00 | 0.00 | 0.00 | 24 | 1012.4 |
| 20260508224709 | 69 | 185 | 1.0 | 5.0 | 0.00 | 0.00 | 0.00 | 24 | 1012.4 |
| 20260508224209 | 69 | 140 | 1.0 | 5.0 | 0.00 | 0.00 | 0.00 | 23 | 1012.3 |
| 20260508223710 | 69 | 172 | 1.0 | 4.0 | 0.00 | 0.00 | 0.00 | 25 | 1012.4 |
| 20260508222709 | 69 | 216 | 1.0 | 2.0 | 0.00 | 0.00 | 0.00 | 24 | 1012.5 |
| 20260508222209 | 69 | 132 | 1.0 | 2.0 | 0.00 | 0.00 | 0.00 | 25 | 1012.4 |
| 20260508221709 | 69 | 130 | 1.0 | 2.0 | 0.00 | 0.00 | 0.00 | 24 | 1012.4 |
| 20260508220710 | 69 | 103 | 1.0 | 3.0 | 0.00 | 0.00 | 0.00 | 26 | 1012.4 |
| 20260508220206 | 69 | 103 | 1.0 | 3.0 | 0.00 | 0.00 | 0.00 | 25 | 1012.4 |
| 20260508214705 | 69 | 145 | 2.0 | 7.0 | 0.00 | 0.00 | 0.00 | 25 | 1012.0 |
| 20260508214206 | 69 | 80 | 1.0 | 7.0 | 0.00 | 0.00 | 0.00 | 23 | 1012.0 |
| 20260508213206 | 70 | 136 | 1.0 | 5.0 | 0.00 | 0.00 | 0.00 | 24 | 1012.3 |
| 20260508212705 | 70 | 159 | 1.0 | 5.0 | 0.00 | 0.00 | 0.00 | 24 | 1012.3 |
| 20260508212206 | 70 | 155 | 1.0 | 4.0 | 0.00 | 0.00 | 0.00 | 24 | 1012.3 |
| 20260508211705 | 70 | 121 | 1.0 | 3.0 | 0.00 | 0.00 | 0.00 | 26 | 1012.5 |
| 20260508211205 | 70 | 142 | 1.0 | 3.0 | 0.00 | 0.00 | 0.00 | 24 | 1012.7 |
| 20260508210705 | 70 | 138 | 1.0 | 4.0 | 0.00 | 0.00 | 0.00 | 24 | 1012.9 |
| 20260508210206 | 70 | 167 | 1.0 | 4.0 | 0.00 | 0.00 | 0.00 | 24 | 1012.9 |
| 20260508205705 | 71 | 178 | 1.0 | 4.0 | 0.00 | 0.00 | 0.00 | 23 | 1013.0 |
| 20260508204706 | 71 | 99 | 1.0 | 3.0 | 0.00 | 0.00 | 0.00 | 23 | 1013.0 |
| 20260508204205 | 71 | 153 | 1.0 | 4.0 | 0.00 | 0.00 | 0.00 | 25 | 1013.3 |
| 20260508203705 | 71 | 142 | 1.0 | 6.0 | 0.00 | 0.00 | 0.00 | 24 | 1013.3 |
| 20260508203206 | 71 | 118 | 1.0 | 6.0 | 0.00 | 0.00 | 0.00 | 25 | 1013.4 |
| 20260508202712 | 72 | 128 | 1.0 | 6.0 | 0.00 | 0.00 | 0.00 | 24 | 1013.5 |
| 20260508201706 | 72 | 75 | 1.0 | 4.0 | 0.00 | 0.00 | 0.00 | 23 | 1013.4 |
| 20260508201204 | 72 | 149 | 1.0 | 3.0 | 0.00 | 0.00 | 0.00 | 22 | 1013.5 |
| 20260508200703 | 72 | 220 | 1.0 | 3.0 | 0.00 | 0.00 | 0.00 | 22 | 1013.5 |
| 20260508200201 | 72 | 207 | 1.0 | 5.0 | 0.00 | 0.00 | 0.00 | 25 | 1013.3 |
| 20260508195201 | 72 | 206 | 1.0 | 4.0 | 0.00 | 0.00 | 0.00 | 24 | 1013.5 |
| 20260508194701 | 71 | 109 | 1.0 | 4.0 | 0.00 | 0.00 | 0.00 | 25 | 1013.4 |
| 20260508194201 | 71 | 142 | 1.0 | 5.0 | 0.00 | 0.00 | 0.00 | 25 | 1013.5 |
| 20260508193707 | 71 | 103 | 1.0 | 5.0 | 0.00 | 0.00 | 0.00 | 24 | 1013.5 |
| 20260508193201 | 71 | 185 | 1.0 | 3.0 | 0.00 | 0.00 | 0.00 | 26 | 1013.5 |
| 20260508192700 | 71 | 314 | 1.0 | 3.0 | 0.00 | 0.00 | 0.00 | 26 | 1013.6 |
| 20260508192157 | 71 | 211 | 1.0 | 5.0 | 0.00 | 0.00 | 0.00 | 26 | 1013.6 |
| 20260508191657 | 71 | 55 | 1.0 | 5.0 | 0.00 | 0.00 | 0.00 | 27 | 1013.6 |
| 20260508191155 | 71 | 197 | 1.0 | 5.0 | 0.00 | 0.00 | 0.00 | 24 | 1013.8 |
| 20260508190654 | 71 | 71 | 1.0 | 6.0 | 0.00 | 0.00 | 0.00 | 24 | 1013.9 |
| 20260508190151 | 71 | 156 | 2.0 | 6.0 | 0.00 | 0.00 | 0.00 | 24 | 1014.0 |
| 20260508185648 | 71 | 219 | 2.0 | 4.0 | 0.00 | 0.00 | 0.00 | 23 | 1014.0 |
| 20260508185145 | 72 | 165 | 1.0 | 4.0 | 0.00 | 0.00 | 0.00 | 24 | 1014.1 |
| 20260508184645 | 72 | 86 | 1.0 | 4.0 | 0.00 | 0.00 | 0.00 | 25 | 1014.2 |
| 20260508183140 | 72 | 159 | 1.0 | 4.0 | 0.00 | 0.00 | 0.00 | 24 | 1014.5 |
| 20260508182637 | 72 | 225 | 1.0 | 4.0 | 0.00 | 0.00 | 0.00 | 25 | 1014.5 |
| 20260508182135 | 72 | 75 | 1.0 | 5.0 | 0.00 | 0.00 | 0.00 | 22 | 1014.8 |
| 20260508181634 | 72 | 161 | 2.0 | 5.0 | 0.00 | 0.00 | 0.00 | 22 | 1014.9 |
| 20260508181134 | 73 | 153 | 2.0 | 6.0 | 0.00 | 0.00 | 0.00 | 23 | 1015.0 |
| 20260508180634 | 73 | 154 | 2.0 | 6.0 | 0.00 | 0.00 | 0.00 | 22 | 1015.1 |
| 20260508180134 | 73 | 111 | 1.0 | 6.0 | 0.00 | 0.00 | 0.00 | 21 | 1015.2 |
| 20260508175631 | 74 | 165 | 1.0 | 6.0 | 0.00 | 0.00 | 0.00 | 20 | 1015.3 |
| 20260508175131 | 74 | 210 | 1.0 | 5.0 | 0.00 | 0.00 | 0.00 | 22 | 1015.2 |
| 20260508174631 | 74 | 209 | 1.0 | 5.0 | 0.00 | 0.00 | 0.00 | 21 | 1015.5 |
| 20260508174130 | 73 | 198 | 1.0 | 3.0 | 0.00 | 0.00 | 0.00 | 19 | 1015.6 |
| 20260508173629 | 73 | 190 | 1.0 | 4.0 | 0.00 | 0.00 | 0.00 | 23 | 1015.6 |
| 20260508173125 | 73 | 191 | 1.0 | 4.0 | 0.00 | 0.00 | 0.00 | 23 | 1015.7 |
| 20260508172619 | 73 | 123 | 1.0 | 3.0 | 0.00 | 0.00 | 0.00 | 25 | 1015.8 |
| 20260508172112 | 73 | 121 | 1.0 | 5.0 | 0.00 | 0.00 | 0.00 | 24 | 1015.9 |
| 20260508171612 | 72 | 123 | 1.0 | 5.0 | 0.00 | 0.00 | 0.00 | 28 | 1016.0 |
| 20260508171109 | 72 | 248 | 1.0 | 4.0 | 0.00 | 0.00 | 0.00 | 26 | 1016.1 |
| 20260508170609 | 72 | 248 | 1.0 | 4.0 | 0.00 | 0.00 | 0.00 | 25 | 1016.1 |
| 20260508170108 | 72 | 119 | 2.0 | 4.0 | 0.00 | 0.00 | 0.00 | 25 | 1016.3 |
| 20260508165106 | 72 | 183 | 2.0 | 4.0 | 0.00 | 0.00 | 0.00 | 25 | 1016.5 |
| 20260508164608 | 71 | 201 | 2.0 | 7.0 | 0.00 | 0.00 | 0.00 | 28 | 1016.7 |
| 20260508164107 | 71 | 159 | 2.0 | 7.0 | 0.00 | 0.00 | 0.00 | 27 | 1016.8 |
| 20260508163601 | 72 | 104 | 2.0 | 7.0 | 0.00 | 0.00 | 0.00 | 29 | 1016.8 |
| 20260508163101 | 72 | 146 | 1.0 | 6.0 | 0.00 | 0.00 | 0.00 | 29 | 1016.8 |
| 20260508162601 | 72 | 245 | 1.0 | 3.0 | 0.00 | 0.00 | 0.00 | 28 | 1016.9 |
| 20260508162101 | 72 | 109 | 1.0 | 5.0 | 0.00 | 0.00 | 0.00 | 29 | 1016.9 |
| 20260508161601 | 71 | 130 | 1.0 | 5.0 | 0.00 | 0.00 | 0.00 | 29 | 1016.9 |
| 20260508161100 | 71 | 146 | 1.0 | 4.0 | 0.00 | 0.00 | 0.00 | 31 | 1017.0 |
| 20260508160601 | 71 | 182 | 1.0 | 4.0 | 0.00 | 0.00 | 0.00 | 29 | 1017.1 |
| 20260508155600 | 71 | 153 | 1.0 | 5.0 | 0.00 | 0.00 | 0.00 | 29 | 1017.4 |
| 20260508155101 | 71 | 136 | 1.0 | 5.0 | 0.00 | 0.00 | 0.00 | 29 | 1017.5 |
| 20260508154558 | 71 | 147 | 1.0 | 4.0 | 0.00 | 0.00 | 0.00 | 27 | 1017.5 |
| 20260508153548 | 70 | 153 | 1.0 | 3.0 | 0.00 | 0.00 | 0.00 | 26 | 1017.6 |
| 20260508153040 | 70 | 153 | 1.0 | 4.0 | 0.00 | 0.00 | 0.00 | 26 | 1017.7 |
| 20260508152540 | 70 | 153 | 1.0 | 4.0 | 0.00 | 0.00 | 0.00 | 28 | 1017.7 |
| 20260508152040 | 69 | 152 | 1.0 | 3.0 | 0.00 | 0.00 | 0.00 | 29 | 1017.7 |
| 20260508151539 | 69 | 150 | 1.0 | 3.0 | 0.00 | 0.00 | 0.00 | 31 | 1017.8 |
| 20260508151037 | 69 | 157 | 1.0 | 3.0 | 0.00 | 0.00 | 0.00 | 27 | 1017.8 |
| 20260508150535 | 68 | 185 | 1.0 | 3.0 | 0.00 | 0.00 | 0.00 | 29 | 1017.8 |
| 20260508150035 | 67 | 184 | 1.0 | 3.0 | 0.00 | 0.00 | 0.00 | 27 | 1017.8 |
| 20260508145535 | 67 | 169 | 1.0 | 4.0 | 0.00 | 0.00 | 0.00 | 30 | 1017.8 |
| 20260508144529 | 66 | 133 | 1.0 | 3.0 | 0.00 | 0.00 | 0.00 | 31 | 1017.8 |
| 20260508144029 | 65 | 70 | 1.0 | 3.0 | 0.00 | 0.00 | 0.00 | 35 | 1017.8 |
| 20260508143529 | 64 | 161 | 1.0 | 4.0 | 0.00 | 0.00 | 0.00 | 32 | 1017.7 |
| 20260508143035 | 63 | 161 | 1.0 | 4.0 | 0.00 | 0.00 | 0.00 | 33 | 1017.7 |
| 20260508142529 | 62 | 285 | 1.0 | 3.0 | 0.00 | 0.00 | 0.00 | 34 | 1017.8 |
| 20260508142029 | 62 | 211 | 0.0 | 2.0 | 0.00 | 0.00 | 0.00 | 36 | 1017.8 |
| 20260508141530 | 60 | 211 | 1.0 | 2.0 | 0.00 | 0.00 | 0.00 | 39 | 1017.8 |
| 20260508140529 | 58 | 219 | 0.0 | 5.0 | 0.00 | 0.00 | 0.00 | 41 | 1017.8 |
| 20260508140029 | 57 | 244 | 0.0 | 3.0 | 0.00 | 0.00 | 0.00 | 43 | 1017.9 |
| 20260508135527 | 56 | 310 | 0.0 | 0.0 | 0.00 | 0.00 | 0.00 | 44 | 1017.8 |
| 20260508135021 | 55 | 300 | 0.0 | 1.0 | 0.00 | 0.00 | 0.00 | 47 | 1017.8 |
| 20260508134515 | 54 | 316 | 0.0 | 1.0 | 0.00 | 0.00 | 0.00 | 48 | 1017.7 |
| 20260508134010 | 53 | 339 | 0.0 | 1.0 | 0.00 | 0.00 | 0.00 | 49 | 1017.7 |
| 20260508133008 | 51 | 245 | 0.0 | 0.0 | 0.00 | 0.00 | 0.00 | 53 | 1017.6 |
| 20260508132004 | 50 | 245 | 0.0 | 0.0 | 0.00 | 0.00 | 0.00 | 54 | 1017.6 |
| 20260508131502 | 49 | 245 | 0.0 | 0.0 | 0.00 | 0.00 | 0.00 | 54 | 1017.7 |
| 20260508131003 | 49 | 246 | 0.0 | 0.0 | 0.00 | 0.00 | 0.00 | 54 | 1017.7 |
| 20260508130501 | 48 | 246 | 0.0 | 0.0 | 0.00 | 0.00 | 0.00 | 54 | 1017.7 |
| 20260508130007 | 48 | 246 | 0.0 | 0.0 | 0.00 | 0.00 | 0.00 | 54 | 1017.7 |
| 20260508125502 | 47 | 246 | 0.0 | 0.0 | 0.00 | 0.00 | 0.00 | 55 | 1017.6 |
| 20260508125001 | 47 | 246 | 0.0 | 0.0 | 0.00 | 0.00 | 0.00 | 55 | 1017.6 |
| 20260508124501 | 46 | 246 | 0.0 | 0.0 | 0.00 | 0.00 | 0.00 | 55 | 1017.6 |
| 20260508124001 | 45 | 246 | 0.0 | 0.0 | 0.00 | 0.00 | 0.00 | 54 | 1017.6 |
| 20260508123000 | 44 | 246 | 0.0 | 0.0 | 0.00 | 0.00 | 0.00 | 53 | 1017.7 |
| 20260508122501 | 44 | 273 | 0.0 | 0.0 | 0.00 | 0.00 | 0.00 | 53 | 1017.7 |
| 20260508122001 | 43 | 275 | 0.0 | 0.0 | 0.00 | 0.00 | 0.00 | 54 | 1017.7 |
| 20260508121500 | 43 | 275 | 0.0 | 0.0 | 0.00 | 0.00 | 0.00 | 54 | 1017.6 |
| 20260508121001 | 42 | 275 | 0.0 | 0.0 | 0.00 | 0.00 | 0.00 | 54 | 1017.6 |
| 20260508120457 | 42 | 275 | 0.0 | 0.0 | 0.00 | 0.00 | 0.00 | 55 | 1017.6 |
| 20260508115957 | 42 | 275 | 0.0 | 0.0 | 0.00 | 0.00 | 0.00 | 55 | 1017.7 |
| 20260508114956 | 41 | 275 | 0.0 | 0.0 | 0.00 | 0.00 | 0.00 | 56 | 1017.6 |
| 20260508114455 | 40 | 275 | 0.0 | 0.0 | 0.00 | 0.00 | 0.00 | 57 | 1017.5 |
| 20260508113953 | 40 | 275 | 0.0 | 0.0 | 0.00 | 0.00 | 0.00 | 57 | 1017.4 |
| 20260508113452 | 40 | 275 | 0.0 | 0.0 | 0.00 | 0.00 | 0.00 | 58 | 1017.4 |
| 20260508112949 | 39 | 275 | 0.0 | 0.0 | 0.00 | 0.00 | 0.00 | 59 | 1017.2 |
| 20260508112447 | 39 | 275 | 0.0 | 0.0 | 0.00 | 0.00 | 0.00 | 60 | 1017.2 |
| 20260508111945 | 39 | 275 | 0.0 | 0.0 | 0.00 | 0.00 | 0.00 | 61 | 1017.1 |
| 20260508111445 | 39 | 275 | 0.0 | 0.0 | 0.00 | 0.00 | 0.00 | 61 | 1017.1 |
| 20260508110443 | 38 | 275 | 0.0 | 0.0 | 0.00 | 0.00 | 0.00 | 61 | 1017.1 |
| 20260508105940 | 38 | 275 | 0.0 | 0.0 | 0.00 | 0.00 | 0.00 | 61 | 1017.0 |
| 20260508104937 | 38 | 275 | 0.0 | 0.0 | 0.00 | 0.00 | 0.00 | 61 | 1016.9 |
| 20260508104435 | 38 | 275 | 0.0 | 0.0 | 0.00 | 0.00 | 0.00 | 61 | 1016.8 |
| 20260508103933 | 39 | 275 | 0.0 | 0.0 | 0.00 | 0.00 | 0.00 | 61 | 1016.8 |
| 20260508103433 | 39 | 275 | 0.0 | 0.0 | 0.00 | 0.00 | 0.00 | 61 | 1016.7 |
| 20260508102933 | 39 | 275 | 0.0 | 0.0 | 0.00 | 0.00 | 0.00 | 61 | 1016.8 |
| 20260508102437 | 39 | 275 | 0.0 | 0.0 | 0.00 | 0.00 | 0.00 | 61 | 1016.8 |
| 20260508101936 | 39 | 275 | 0.0 | 0.0 | 0.00 | 0.00 | 0.00 | 61 | 1016.7 |
| 20260508101434 | 39 | 275 | 0.0 | 0.0 | 0.00 | 0.00 | 0.00 | 61 | 1016.6 |
| 20260508100922 | 39 | 275 | 0.0 | 0.0 | 0.00 | 0.00 | 0.00 | 61 | 1016.7 |
| 20260508100415 | 39 | 275 | 0.0 | 0.0 | 0.00 | 0.00 | 0.00 | 61 | 1016.6 |
| 20260508095921 | 39 | 275 | 0.0 | 0.0 | 0.00 | 0.00 | 0.00 | 61 | 1016.6 |
| 20260508095415 | 39 | 275 | 0.0 | 0.0 | 0.00 | 0.00 | 0.00 | 61 | 1016.6 |
| 20260508094915 | 39 | 275 | 0.0 | 0.0 | 0.00 | 0.00 | 0.00 | 61 | 1016.7 |
| 20260508093910 | 39 | 275 | 0.0 | 0.0 | 0.00 | 0.00 | 0.00 | 61 | 1016.8 |
| 20260508093412 | 39 | 275 | 0.0 | 0.0 | 0.00 | 0.00 | 0.00 | 61 | 1016.7 |
| 20260508092911 | 39 | 275 | 0.0 | 0.0 | 0.00 | 0.00 | 0.00 | 61 | 1016.6 |
| 20260508092411 | 39 | 275 | 0.0 | 0.0 | 0.00 | 0.00 | 0.00 | 61 | 1016.7 |
| 20260508091411 | 39 | 275 | 0.0 | 0.0 | 0.00 | 0.00 | 0.00 | 61 | 1016.6 |
| 20260508090911 | 39 | 275 | 0.0 | 0.0 | 0.00 | 0.00 | 0.00 | 61 | 1016.7 |
| 20260508090409 | 39 | 275 | 0.0 | 0.0 | 0.00 | 0.00 | 0.00 | 61 | 1016.7 |
| 20260508085906 | 39 | 275 | 0.0 | 0.0 | 0.00 | 0.00 | 0.00 | 61 | 1016.7 |
| 20260508085407 | 40 | 275 | 0.0 | 0.0 | 0.00 | 0.00 | 0.00 | 61 | 1016.7 |
| 20260508084913 | 40 | 275 | 0.0 | 0.0 | 0.00 | 0.00 | 0.00 | 61 | 1016.7 |
| 20260508084407 | 40 | 275 | 0.0 | 0.0 | 0.00 | 0.00 | 0.00 | 61 | 1016.8 |
| 20260508083907 | 40 | 275 | 0.0 | 0.0 | 0.00 | 0.00 | 0.00 | 61 | 1016.7 |
| 20260508082906 | 40 | 275 | 0.0 | 0.0 | 0.00 | 0.00 | 0.00 | 61 | 1016.7 |
| 20260508082407 | 40 | 275 | 0.0 | 0.0 | 0.00 | 0.00 | 0.00 | 61 | 1016.7 |
| 20260508081407 | 40 | 275 | 0.0 | 0.0 | 0.00 | 0.00 | 0.00 | 61 | 1016.7 |
| 20260508080407 | 40 | 275 | 0.0 | 0.0 | 0.00 | 0.00 | 0.00 | 61 | 1016.7 |
| 20260508075905 | 40 | 275 | 0.0 | 0.0 | 0.00 | 0.00 | 0.00 | 61 | 1016.7 |
| 20260508075405 | 40 | 275 | 0.0 | 0.0 | 0.00 | 0.00 | 0.00 | 61 | 1016.7 |
| 20260508074902 | 40 | 275 | 0.0 | 0.0 | 0.00 | 0.00 | 0.00 | 61 | 1016.7 |
| 20260508074409 | 40 | 275 | 0.0 | 0.0 | 0.00 | 0.00 | 0.00 | 61 | 1016.7 |
| 20260508073908 | 40 | 275 | 0.0 | 0.0 | 0.00 | 0.00 | 0.00 | 62 | 1016.7 |
| 20260508073407 | 40 | 275 | 0.0 | 0.0 | 0.00 | 0.00 | 0.00 | 61 | 1016.7 |
| 20260508072908 | 40 | 275 | 0.0 | 0.0 | 0.00 | 0.00 | 0.00 | 61 | 1016.8 |
| 20260508072403 | 41 | 275 | 0.0 | 0.0 | 0.00 | 0.00 | 0.00 | 61 | 1016.8 |
| 20260508071400 | 41 | 275 | 0.0 | 0.0 | 0.00 | 0.00 | 0.00 | 61 | 1016.8 |
| 20260508070901 | 41 | 275 | 0.0 | 0.0 | 0.00 | 0.00 | 0.00 | 61 | 1016.7 |
| 20260508070400 | 41 | 275 | 0.0 | 0.0 | 0.00 | 0.00 | 0.00 | 61 | 1016.7 |
| 20260508065901 | 41 | 275 | 0.0 | 0.0 | 0.00 | 0.00 | 0.00 | 61 | 1016.7 |
| 20260508065401 | 41 | 275 | 0.0 | 0.0 | 0.00 | 0.00 | 0.00 | 61 | 1016.7 |
| 20260508064901 | 41 | 275 | 0.0 | 0.0 | 0.00 | 0.00 | 0.00 | 61 | 1016.7 |
| 20260508064401 | 41 | 275 | 0.0 | 0.0 | 0.00 | 0.00 | 0.00 | 61 | 1016.7 |
| 20260508063857 | 41 | 275 | 0.0 | 0.0 | 0.00 | 0.00 | 0.00 | 61 | 1016.7 |
| 20260508063357 | 41 | 275 | 0.0 | 0.0 | 0.00 | 0.00 | 0.00 | 61 | 1016.8 |
| 20260508062352 | 42 | 275 | 0.0 | 0.0 | 0.00 | 0.00 | 0.00 | 60 | 1016.7 |
| 20260508061851 | 42 | 275 | 0.0 | 0.0 | 0.00 | 0.00 | 0.00 | 60 | 1016.7 |
| 20260508061350 | 42 | 275 | 0.0 | 0.0 | 0.00 | 0.00 | 0.00 | 60 | 1016.6 |
| 20260508060851 | 42 | 275 | 0.0 | 0.0 | 0.00 | 0.00 | 0.00 | 60 | 1016.7 |
| 20260508060350 | 42 | 275 | 0.0 | 0.0 | 0.00 | 0.00 | 0.00 | 60 | 1016.8 |
| 20260508055851 | 42 | 275 | 0.0 | 0.0 | 0.00 | 0.00 | 0.00 | 60 | 1016.8 |
| 20260508055351 | 42 | 275 | 0.0 | 0.0 | 0.00 | 0.00 | 0.00 | 60 | 1016.9 |
| 20260508054851 | 42 | 275 | 0.0 | 0.0 | 0.00 | 0.00 | 0.00 | 60 | 1017.0 |
| 20260508054351 | 43 | 275 | 0.0 | 0.0 | 0.00 | 0.00 | 0.00 | 60 | 1017.1 |
| 20260508053349 | 43 | 275 | 0.0 | 0.0 | 0.00 | 0.00 | 0.00 | 60 | 1017.1 |
| 20260508052847 | 43 | 275 | 0.0 | 0.0 | 0.00 | 0.00 | 0.00 | 59 | 1017.1 |
| 20260508052347 | 43 | 275 | 0.0 | 0.0 | 0.00 | 0.00 | 0.00 | 59 | 1017.1 |
| 20260508051347 | 43 | 275 | 0.0 | 0.0 | 0.00 | 0.00 | 0.00 | 59 | 1017.1 |
| 20260508050847 | 43 | 275 | 0.0 | 0.0 | 0.00 | 0.00 | 0.00 | 59 | 1017.2 |
| 20260508050346 | 44 | 275 | 0.0 | 0.0 | 0.00 | 0.00 | 0.00 | 59 | 1017.1 |
| 20260508045846 | 44 | 275 | 0.0 | 0.0 | 0.00 | 0.00 | 0.00 | 59 | 1017.1 |
| 20260508045347 | 44 | 275 | 0.0 | 0.0 | 0.00 | 0.00 | 0.00 | 59 | 1017.1 |
| 20260508044847 | 44 | 275 | 0.0 | 0.0 | 0.00 | 0.00 | 0.00 | 59 | 1017.1 |
| 20260508044346 | 44 | 275 | 0.0 | 0.0 | 0.00 | 0.00 | 0.00 | 59 | 1017.1 |
| 20260508043846 | 44 | 275 | 0.0 | 0.0 | 0.00 | 0.00 | 0.00 | 59 | 1017.1 |
| 20260508043347 | 44 | 275 | 0.0 | 0.0 | 0.00 | 0.00 | 0.00 | 58 | 1017.1 |
| 20260508042853 | 44 | 275 | 0.0 | 1.0 | 0.00 | 0.00 | 0.00 | 58 | 1017.0 |
| 20260508042353 | 44 | 275 | 0.0 | 1.0 | 0.00 | 0.00 | 0.00 | 58 | 1017.0 |
| 20260508041852 | 44 | 275 | 0.0 | 1.0 | 0.00 | 0.00 | 0.00 | 58 | 1016.9 |
| 20260508041353 | 44 | 275 | 0.0 | 0.0 | 0.00 | 0.00 | 0.00 | 57 | 1017.0 |
| 20260508040849 | 45 | 275 | 0.0 | 0.0 | 0.00 | 0.00 | 0.00 | 56 | 1016.9 |
| 20260508040349 | 45 | 275 | 0.0 | 0.0 | 0.00 | 0.00 | 0.00 | 56 | 1016.9 |
| 20260508035847 | 45 | 275 | 0.0 | 0.0 | 0.00 | 0.00 | 0.00 | 55 | 1016.9 |
| 20260508035342 | 45 | 275 | 0.0 | 0.0 | 0.00 | 0.00 | 0.00 | 55 | 1017.0 |
| 20260508034840 | 45 | 275 | 0.0 | 0.0 | 0.00 | 0.00 | 0.00 | 56 | 1017.1 |
| 20260508032838 | 46 | 275 | 0.0 | 0.0 | 0.00 | 0.00 | 0.00 | 55 | 1017.0 |
| 20260508032336 | 47 | 275 | 0.0 | 0.0 | 0.00 | 0.00 | 0.00 | 54 | 1017.1 |
| 20260508031835 | 47 | 275 | 0.0 | 0.0 | 0.00 | 0.00 | 0.00 | 53 | 1017.2 |
| 20260508030836 | 47 | 275 | 0.0 | 0.0 | 0.00 | 0.00 | 0.00 | 53 | 1017.2 |
| 20260508030334 | 47 | 275 | 0.0 | 0.0 | 0.00 | 0.00 | 0.00 | 52 | 1017.2 |
| 20260508025834 | 48 | 275 | 0.0 | 0.0 | 0.00 | 0.00 | 0.00 | 52 | 1017.2 |
| 20260508025332 | 48 | 275 | 0.0 | 0.0 | 0.00 | 0.00 | 0.00 | 52 | 1017.1 |
| 20260508024837 | 48 | 275 | 0.0 | 0.0 | 0.00 | 0.00 | 0.00 | 52 | 1017.1 |
| 20260508024336 | 48 | 275 | 0.0 | 0.0 | 0.00 | 0.00 | 0.00 | 51 | 1017.0 |
| 20260508023834 | 49 | 275 | 0.0 | 0.0 | 0.00 | 0.00 | 0.00 | 50 | 1017.0 |
| 20260508023330 | 49 | 275 | 0.0 | 0.0 | 0.00 | 0.00 | 0.00 | 49 | 1017.1 |
| 20260508022828 | 49 | 275 | 0.0 | 0.0 | 0.00 | 0.00 | 0.00 | 48 | 1017.0 |
| 20260508022329 | 49 | 275 | 0.0 | 0.0 | 0.00 | 0.00 | 0.00 | 48 | 1017.0 |
| 20260508021828 | 50 | 275 | 0.0 | 0.0 | 0.00 | 0.00 | 0.00 | 48 | 1016.9 |
| 20260508021329 | 50 | 275 | 0.0 | 0.0 | 0.00 | 0.00 | 0.00 | 47 | 1016.9 |
| 20260508020829 | 50 | 275 | 0.0 | 0.0 | 0.00 | 0.00 | 0.00 | 46 | 1016.9 |
| 20260508015829 | 51 | 275 | 0.0 | 0.0 | 0.00 | 0.00 | 0.00 | 46 | 1016.7 |
| 20260508014828 | 52 | 275 | 0.0 | 0.0 | 0.00 | 0.00 | 0.00 | 45 | 1016.5 |
| 20260508014329 | 52 | 275 | 0.0 | 0.0 | 0.00 | 0.00 | 0.00 | 44 | 1016.4 |
| 20260508013829 | 53 | 275 | 0.0 | 0.0 | 0.00 | 0.00 | 0.00 | 43 | 1016.3 |
| 20260508013329 | 53 | 275 | 0.0 | 0.0 | 0.00 | 0.00 | 0.00 | 42 | 1016.3 |
| 20260508012828 | 53 | 275 | 0.0 | 0.0 | 0.00 | 0.00 | 0.00 | 41 | 1016.4 |
| 20260508012328 | 54 | 275 | 0.0 | 0.0 | 0.00 | 0.00 | 0.00 | 40 | 1016.3 |
| 20260508011827 | 55 | 275 | 0.0 | 0.0 | 0.00 | 0.00 | 0.00 | 39 | 1016.1 |
| 20260508011328 | 55 | 275 | 0.0 | 0.0 | 0.00 | 0.00 | 0.00 | 36 | 1016.1 |
| 20260508010824 | 56 | 275 | 0.0 | 0.0 | 0.00 | 0.00 | 0.00 | 35 | 1016.0 |
| 20260508005823 | 56 | 275 | 0.0 | 0.0 | 0.00 | 0.00 | 0.00 | 34 | 1015.9 |
| 20260508005324 | 57 | 275 | 0.0 | 0.0 | 0.00 | 0.00 | 0.00 | 34 | 1015.9 |
| 20260508004824 | 57 | 275 | 0.0 | 0.0 | 0.00 | 0.00 | 0.00 | 33 | 1015.9 |
| 20260508004324 | 58 | 275 | 0.0 | 0.0 | 0.00 | 0.00 | 0.00 | 33 | 1015.8 |
| 20260508002824 | 58 | 275 | 0.0 | 2.0 | 0.00 | 0.00 | 0.00 | 28 | 1015.7 |
| 20260508002319 | 58 | 275 | 0.0 | 3.0 | 0.00 | 0.00 | 0.00 | 27 | 1015.5 |
| 20260508001819 | 59 | 274 | 0.0 | 3.0 | 0.00 | 0.00 | 0.00 | 27 | 1015.4 |
| 20260508001320 | 59 | 274 | 1.0 | 4.0 | 0.00 | 0.00 | 0.00 | 28 | 1015.4 |
| 20260508000820 | 59 | 302 | 1.0 | 4.0 | 0.00 | 0.00 | 0.00 | 26 | 1015.4 |
| 20260508000320 | 59 | 5 | 1.0 | 4.0 | 0.00 | 0.00 | 0.00 | 27 | 1015.5 |
| 20260507235819 | 60 | 9 | 1.0 | 4.0 | 0.00 | 0.00 | 0.00 | 26 | 1015.4 |
| 20260507235319 | 60 | 319 | 1.0 | 2.0 | 0.00 | 0.00 | 0.00 | 25 | 1015.4 |
| 20260507234820 | 60 | 315 | 1.0 | 3.0 | 0.00 | 0.00 | 0.00 | 26 | 1015.4 |
| 20260507233815 | 61 | 273 | 1.0 | 3.0 | 0.00 | 0.00 | 0.00 | 24 | 1015.4 |
| 20260507233316 | 61 | 286 | 2.0 | 6.0 | 0.00 | 0.00 | 0.00 | 25 | 1015.4 |
| 20260507232815 | 61 | 309 | 1.0 | 6.0 | 0.00 | 0.00 | 0.00 | 24 | 1015.3 |
| 20260507232316 | 62 | 244 | 1.0 | 4.0 | 0.00 | 0.00 | 0.00 | 25 | 1015.4 |
| 20260507231815 | 62 | 292 | 1.0 | 4.0 | 0.00 | 0.00 | 0.00 | 24 | 1015.4 |
| 20260507230822 | 62 | 274 | 1.0 | 7.0 | 0.00 | 0.00 | 0.00 | 25 | 1015.3 |
| 20260507230322 | 62 | 290 | 1.0 | 8.0 | 0.00 | 0.00 | 0.00 | 23 | 1015.3 |